Time,TemperatureF,DewpointF,PressureIn,WindDirection,WindDirectionDegrees,WindSpeedMPH,WindSpeedGustMPH,Humidity,HourlyPrecipIn,Conditions,Clouds,dailyrainin,SoftwareType,DateUTC
2013-11-06 00:04:00,37.0,34.9,29.24,SE,135,0.0,0.0,92,0.00,,,0.00,WeatherCatV1.23B14,2013-11-06 00:04:00,
2013-11-06 00:14:00,36.9,34.7,29.24,SSE,157,0.0,0.0,92,0.00,,,0.00,WeatherCatV1.23B14,2013-11-06 00:14:00,
2013-11-06 00:24:00,37.2,35.1,29.24,SSE,157,0.0,0.0,92,0.00,,,0.00,WeatherCatV1.23B14,2013-11-06 00:24:00,
2013-11-06 00:34:00,37.2,35.1,29.24,North,0,0.0,0.0,92,0.00,,,0.00,WeatherCatV1.23B14,2013-11-06 00:34:00,
2013-11-06 00:44:00,37.2,35.1,29.24,SE,135,0.0,0.0,92,0.00,,,0.00,WeatherCatV1.23B14,2013-11-06 00:44:00,
2013-11-06 00:54:00,37.6,35.4,29.24,SE,135,0.0,0.0,92,0.00,,,0.00,WeatherCatV1.23B14,2013-11-06 00:54:00,
2013-11-06 01:04:00,37.9,35.8,29.25,West,270,1.6,2.9,92,0.00,,,0.00,WeatherCatV1.23B14,2013-11-06 01:04:00,
2013-11-06 01:14:00,38.3,35.9,29.24,West,270,1.1,1.3,91,0.00,,,0.00,WeatherCatV1.23B14,2013-11-06 01:14:00,
2013-11-06 01:24:00,38.5,36.0,29.25,West,270,0.0,5.8,91,0.00,,,0.00,WeatherCatV1.23B14,2013-11-06 01:24:00,
2013-11-06 01:34:00,38.8,36.4,29.25,WNW,292,0.0,0.0,91,0.00,,,0.00,WeatherCatV1.23B14,2013-11-06 01:34:00,
2013-11-06 01:44:00,38.8,36.4,29.26,South,180,1.6,2.5,91,0.00,,,0.00,WeatherCatV1.23B14,2013-11-06 01:44:00,
2013-11-06 01:54:00,38.8,36.4,29.26,ENE,67,0.0,1.3,91,0.00,,,0.00,WeatherCatV1.23B14,2013-11-06 01:54:00,
2013-11-06 02:04:00,38.7,36.2,29.26,ENE,67,0.0,0.0,91,0.00,,,0.00,WeatherCatV1.23B14,2013-11-06 02:04:00,
2013-11-06 02:14:00,38.8,36.4,29.26,SSE,157,0.0,0.0,91,0.00,,,0.00,WeatherCatV1.23B14,2013-11-06 02:14:00,
2013-11-06 02:24:00,39.0,36.6,29.26,SE,135,0.0,0.0,91,0.00,,,0.00,WeatherCatV1.23B14,2013-11-06 02:24:00,
2013-11-06 02:34:00,39.0,36.6,29.26,SE,135,0.0,0.0,91,0.00,,,0.00,WeatherCatV1.23B14,2013-11-06 02:34:00,
2013-11-06 02:44:00,39.0,36.3,29.26,SSE,157,0.0,2.7,90,0.00,,,0.00,WeatherCatV1.23B14,2013-11-06 02:44:00,
2013-11-06 02:54:00,39.0,36.3,29.26,South,180,0.0,1.6,90,0.00,,,0.00,WeatherCatV1.23B14,2013-11-06 02:54:00,
2013-11-06 03:04:00,38.8,36.1,29.26,South,180,0.0,0.0,90,0.00,,,0.00,WeatherCatV1.23B14,2013-11-06 03:04:00,
2013-11-06 03:14:00,38.1,35.4,29.26,South,180,0.0,0.0,90,0.00,,,0.00,WeatherCatV1.23B14,2013-11-06 03:14:00,
2013-11-06 03:24:00,38.1,35.4,29.27,South,180,0.0,0.0,90,0.00,,,0.00,WeatherCatV1.23B14,2013-11-06 03:24:00,
2013-11-06 03:34:00,38.1,35.4,29.26,South,180,0.0,1.3,90,0.00,,,0.00,WeatherCatV1.23B14,2013-11-06 03:34:00,
2013-11-06 03:44:00,38.3,35.6,29.26,South,180,0.0,2.0,90,0.00,,,0.00,WeatherCatV1.23B14,2013-11-06 03:44:00,
2013-11-06 03:54:00,38.1,35.4,29.27,South,180,0.0,0.0,90,0.00,,,0.00,WeatherCatV1.23B14,2013-11-06 03:54:00,
2013-11-06 04:04:00,38.3,35.6,29.27,SSW,202,0.0,1.1,90,0.00,,,0.00,WeatherCatV1.23B14,2013-11-06 04:04:00,
2013-11-06 04:14:00,38.3,35.6,29.27,NNW,337,0.0,0.0,90,0.00,,,0.00,WeatherCatV1.23B14,2013-11-06 04:14:00,
2013-11-06 04:24:00,38.1,35.4,29.27,North,0,0.0,0.0,90,0.00,,,0.00,WeatherCatV1.23B14,2013-11-06 04:24:00,
2013-11-06 04:34:00,37.9,35.2,29.27,North,0,0.0,0.0,90,0.00,,,0.00,WeatherCatV1.23B14,2013-11-06 04:34:00,
2013-11-06 04:44:00,38.1,35.4,29.28,WNW,292,0.0,1.1,90,0.00,,,0.00,WeatherCatV1.23B14,2013-11-06 04:44:00,
2013-11-06 04:54:00,38.5,36.0,29.28,SE,135,0.0,1.8,91,0.00,,,0.00,WeatherCatV1.23B14,2013-11-06 04:54:00,
2013-11-06 05:04:00,39.0,36.6,29.28,NW,315,0.0,0.0,91,0.00,,,0.00,WeatherCatV1.23B14,2013-11-06 05:04:00,
2013-11-06 05:14:00,38.8,36.4,29.28,South,180,0.0,1.8,91,0.00,,,0.00,WeatherCatV1.23B14,2013-11-06 05:14:00,
2013-11-06 05:24:00,39.0,36.6,29.28,NW,315,0.7,0.7,91,0.00,,,0.00,WeatherCatV1.23B14,2013-11-06 05:24:00,
2013-11-06 05:34:00,39.0,36.3,29.28,NE,45,0.0,0.0,90,0.00,,,0.00,WeatherCatV1.23B14,2013-11-06 05:34:00,
2013-11-06 05:44:00,39.4,36.7,29.28,WNW,292,0.0,2.5,90,0.00,,,0.00,WeatherCatV1.23B14,2013-11-06 05:44:00,
2013-11-06 05:54:00,39.6,36.5,29.28,West,270,0.0,1.6,89,0.00,,,0.00,WeatherCatV1.23B14,2013-11-06 05:54:00,
2013-11-06 06:04:00,39.6,36.5,29.27,South,180,0.0,2.0,89,0.00,,,0.00,WeatherCatV1.23B14,2013-11-06 06:04:00,
2013-11-06 06:14:00,39.6,36.9,29.29,NE,45,0.0,0.0,90,0.00,,,0.00,WeatherCatV1.23B14,2013-11-06 06:14:00,
2013-11-06 06:24:00,39.7,37.0,29.28,WSW,247,1.3,3.1,90,0.00,,,0.00,WeatherCatV1.23B14,2013-11-06 06:24:00,
2013-11-06 06:34:00,39.9,36.9,29.28,NNW,337,0.0,0.0,89,0.00,,,0.00,WeatherCatV1.23B14,2013-11-06 06:34:00,
2013-11-06 06:44:00,39.6,36.5,29.28,ENE,67,0.0,1.6,89,0.00,,,0.00,WeatherCatV1.23B14,2013-11-06 06:44:00,
2013-11-06 06:54:00,39.4,36.4,29.29,NW,315,0.0,0.0,89,0.00,,,0.00,WeatherCatV1.23B14,2013-11-06 06:54:00,
2013-11-06 07:04:00,39.4,36.4,29.29,SSW,202,0.0,0.0,89,0.00,,,0.00,WeatherCatV1.23B14,2013-11-06 07:04:00,
2013-11-06 07:14:00,39.4,36.4,29.29,WSW,247,0.0,2.0,89,0.00,,,0.00,WeatherCatV1.23B14,2013-11-06 07:14:00,
2013-11-06 07:24:00,39.4,36.7,29.29,South,180,0.0,0.0,90,0.00,,,0.00,WeatherCatV1.23B14,2013-11-06 07:24:00,
2013-11-06 07:34:00,39.4,36.7,29.30,South,180,0.0,0.0,90,0.00,,,0.00,WeatherCatV1.23B14,2013-11-06 07:34:00,
2013-11-06 07:44:00,39.4,36.7,29.30,South,180,0.0,0.0,90,0.00,,,0.00,WeatherCatV1.23B14,2013-11-06 07:44:00,
2013-11-06 07:54:00,39.4,36.7,29.30,South,180,0.0,0.0,90,0.00,,,0.00,WeatherCatV1.23B14,2013-11-06 07:54:00,
2013-11-06 08:04:00,39.4,37.0,29.31,South,180,0.0,0.0,91,0.00,,,0.00,WeatherCatV1.23B14,2013-11-06 08:04:00,
2013-11-06 08:14:00,39.4,37.0,29.31,NNE,22,0.0,3.6,91,0.00,,,0.00,WeatherCatV1.23B14,2013-11-06 08:14:00,
2013-11-06 08:24:00,39.7,37.3,29.31,ENE,67,0.0,0.9,91,0.00,,,0.00,WeatherCatV1.23B14,2013-11-06 08:24:00,
2013-11-06 08:34:00,39.6,37.1,29.31,ENE,67,0.0,0.0,91,0.00,,,0.00,WeatherCatV1.23B14,2013-11-06 08:34:00,
2013-11-06 08:44:00,39.4,37.2,29.31,ENE,67,0.0,0.0,92,0.00,,,0.00,WeatherCatV1.23B14,2013-11-06 08:44:00,
2013-11-06 08:54:00,39.4,37.2,29.31,ENE,67,0.0,0.0,92,0.00,,,0.00,WeatherCatV1.23B14,2013-11-06 08:54:00,
2013-11-06 09:04:00,39.6,37.4,29.31,SE,135,1.8,3.1,92,0.00,,,0.00,WeatherCatV1.23B14,2013-11-06 09:04:00,
2013-11-06 09:14:00,39.7,37.6,29.31,SE,135,0.0,0.0,92,0.00,,,0.00,WeatherCatV1.23B14,2013-11-06 09:14:00,
2013-11-06 09:24:00,39.9,37.8,29.31,SE,135,0.0,0.0,92,0.00,,,0.00,WeatherCatV1.23B14,2013-11-06 09:24:00,
2013-11-06 09:34:00,40.3,38.1,29.31,SE,135,0.0,0.0,92,0.00,,,0.00,WeatherCatV1.23B14,2013-11-06 09:34:00,
2013-11-06 09:44:00,40.6,38.5,29.31,SE,135,0.0,0.0,92,0.00,,,0.00,WeatherCatV1.23B14,2013-11-06 09:44:00,
2013-11-06 09:54:00,41.2,39.0,29.31,SE,135,0.0,0.9,92,0.00,,,0.00,WeatherCatV1.23B14,2013-11-06 09:54:00,
2013-11-06 10:04:00,41.5,39.4,29.30,SE,135,0.0,0.0,92,0.00,,,0.00,WeatherCatV1.23B14,2013-11-06 10:04:00,
2013-11-06 10:14:00,41.9,39.5,29.31,NNW,337,0.0,1.8,91,0.00,,,0.00,WeatherCatV1.23B14,2013-11-06 10:14:00,
2013-11-06 10:24:00,42.6,40.2,29.32,SE,135,0.0,0.0,91,0.00,,,0.00,WeatherCatV1.23B14,2013-11-06 10:24:00,
2013-11-06 10:34:00,43.0,40.3,29.32,SSE,157,0.0,0.0,91,0.00,,,0.00,WeatherCatV1.23B14,2013-11-06 10:34:00,
2013-11-06 10:44:00,43.3,40.6,29.31,SE,135,0.0,0.0,90,0.00,,,0.00,WeatherCatV1.23B14,2013-11-06 10:44:00,
2013-11-06 10:54:00,43.5,40.5,29.32,SE,135,0.0,2.0,89,0.00,,,0.00,WeatherCatV1.23B14,2013-11-06 10:54:00,
2013-11-06 11:04:00,43.7,40.4,29.32,SSE,157,0.0,0.9,88,0.00,,,0.00,WeatherCatV1.23B14,2013-11-06 11:04:00,
2013-11-06 11:14:00,43.7,40.1,29.32,SSE,157,0.0,0.0,87,0.00,,,0.00,WeatherCatV1.23B14,2013-11-06 11:14:00,
2013-11-06 11:24:00,44.1,40.0,29.32,SE,135,0.0,0.9,86,0.00,,,0.00,WeatherCatV1.23B14,2013-11-06 11:24:00,
2013-11-06 11:34:00,44.4,40.5,29.31,SE,135,0.0,2.0,86,0.00,,,0.00,WeatherCatV1.23B14,2013-11-06 11:34:00,
2013-11-06 11:44:00,44.4,40.5,29.32,ENE,67,0.0,2.5,86,0.00,,,0.00,WeatherCatV1.23B14,2013-11-06 11:44:00,
2013-11-06 11:54:00,44.8,40.5,29.32,East,90,3.6,5.6,85,0.00,,,0.00,WeatherCatV1.23B14,2013-11-06 11:54:00,
2013-11-06 12:04:00,45.1,40.6,29.32,SE,135,0.0,4.0,84,0.00,,,0.00,WeatherCatV1.23B14,2013-11-06 12:04:00,
2013-11-06 12:14:00,45.1,40.6,29.32,SSE,157,0.0,2.7,84,0.00,,,0.00,WeatherCatV1.23B14,2013-11-06 12:14:00,
2013-11-06 12:24:00,45.1,40.6,29.32,SSW,202,0.0,1.8,83,0.00,,,0.00,WeatherCatV1.23B14,2013-11-06 12:24:00,
2013-11-06 12:34:00,45.3,40.8,29.31,South,180,0.0,1.1,84,0.00,,,0.00,WeatherCatV1.23B14,2013-11-06 12:34:00,
2013-11-06 12:44:00,45.5,41.0,29.31,West,270,0.0,0.0,84,0.00,,,0.00,WeatherCatV1.23B14,2013-11-06 12:44:00,
2013-11-06 12:54:00,45.5,40.7,29.31,WSW,247,0.0,0.7,83,0.00,,,0.00,WeatherCatV1.23B14,2013-11-06 12:54:00,
2013-11-06 13:04:00,45.7,41.1,29.31,WNW,292,0.0,1.6,84,0.00,,,0.00,WeatherCatV1.23B14,2013-11-06 13:04:00,
2013-11-06 13:14:00,45.7,40.8,29.31,ENE,67,0.0,0.0,83,0.00,,,0.00,WeatherCatV1.23B14,2013-11-06 13:14:00,
2013-11-06 13:24:00,45.7,40.8,29.31,West,270,0.0,0.0,83,0.00,,,0.00,WeatherCatV1.23B14,2013-11-06 13:24:00,
2013-11-06 13:34:00,45.7,40.8,29.31,WNW,292,1.1,2.7,83,0.00,,,0.00,WeatherCatV1.23B14,2013-11-06 13:34:00,
2013-11-06 13:44:00,45.7,40.5,29.30,SSE,157,0.7,2.2,82,0.00,,,0.00,WeatherCatV1.23B14,2013-11-06 13:44:00,
2013-11-06 13:54:00,45.7,40.2,29.31,SSE,157,0.0,0.0,81,0.00,,,0.00,WeatherCatV1.23B14,2013-11-06 13:54:00,
2013-11-06 14:04:00,45.7,40.5,29.30,South,180,0.0,0.0,82,0.00,,,0.00,WeatherCatV1.23B14,2013-11-06 14:04:00,
2013-11-06 14:14:00,45.7,40.5,29.30,SSE,157,0.0,3.8,82,0.00,,,0.00,WeatherCatV1.23B14,2013-11-06 14:14:00,
2013-11-06 14:24:00,45.5,40.7,29.30,SE,135,0.0,0.0,83,0.00,,,0.00,WeatherCatV1.23B14,2013-11-06 14:24:00,
2013-11-06 14:34:00,45.5,40.7,29.29,SE,135,0.0,2.2,83,0.00,,,0.00,WeatherCatV1.23B14,2013-11-06 14:34:00,
2013-11-06 14:44:00,45.3,40.2,29.29,ESE,112,0.0,0.0,82,0.00,,,0.00,WeatherCatV1.23B14,2013-11-06 14:44:00,
2013-11-06 14:54:00,45.5,40.3,29.29,SSE,157,1.1,1.1,82,0.00,,,0.00,WeatherCatV1.23B14,2013-11-06 14:54:00,
2013-11-06 15:04:00,45.3,39.9,29.29,SE,135,0.0,0.0,81,0.00,,,0.00,WeatherCatV1.23B14,2013-11-06 15:04:00,
2013-11-06 15:14:00,45.1,39.7,29.28,SE,135,0.0,0.0,81,0.00,,,0.00,WeatherCatV1.23B14,2013-11-06 15:14:00,
2013-11-06 15:24:00,45.1,39.7,29.29,SSE,157,0.0,0.0,81,0.00,,,0.00,WeatherCatV1.23B14,2013-11-06 15:24:00,
2013-11-06 15:34:00,44.8,39.6,29.28,SE,135,0.0,0.0,82,0.00,,,0.00,WeatherCatV1.23B14,2013-11-06 15:34:00,
2013-11-06 15:44:00,44.6,39.3,29.28,South,180,2.5,2.5,82,0.00,,,0.00,WeatherCatV1.23B14,2013-11-06 15:44:00,
2013-11-06 15:54:00,44.2,39.1,29.28,SSE,157,0.0,0.9,82,0.00,,,0.00,WeatherCatV1.23B14,2013-11-06 15:54:00,
2013-11-06 16:04:00,44.1,39.2,29.28,SSE,157,0.0,0.0,83,0.00,,,0.00,WeatherCatV1.23B14,2013-11-06 16:04:00,
2013-11-06 16:14:00,43.7,38.9,29.28,SE,135,0.0,0.0,83,0.00,,,0.00,WeatherCatV1.23B14,2013-11-06 16:14:00,
2013-11-06 16:24:00,43.5,39.0,29.29,SE,135,0.0,0.0,84,0.00,,,0.00,WeatherCatV1.23B14,2013-11-06 16:24:00,
2013-11-06 16:34:00,43.5,38.8,29.28,SE,135,0.0,0.0,84,0.00,,,0.00,WeatherCatV1.23B14,2013-11-06 16:34:00,
2013-11-06 16:44:00,43.3,38.8,29.28,SE,135,0.0,0.0,84,0.00,,,0.00,WeatherCatV1.23B14,2013-11-06 16:44:00,
2013-11-06 16:54:00,43.2,38.6,29.29,SE,135,0.0,0.0,84,0.00,,,0.00,WeatherCatV1.23B14,2013-11-06 16:54:00,
2013-11-06 17:04:00,43.2,38.9,29.28,SE,135,0.0,0.0,85,0.00,,,0.00,WeatherCatV1.23B14,2013-11-06 17:04:00,
2013-11-06 17:14:00,43.3,39.1,29.29,SE,135,0.0,0.0,85,0.00,,,0.00,WeatherCatV1.23B14,2013-11-06 17:14:00,
2013-11-06 17:24:00,43.3,39.1,29.28,ENE,67,0.0,0.0,85,0.00,,,0.00,WeatherCatV1.23B14,2013-11-06 17:24:00,
2013-11-06 17:34:00,43.5,39.3,29.28,West,270,0.0,1.1,85,0.00,,,0.00,WeatherCatV1.23B14,2013-11-06 17:34:00,
2013-11-06 17:44:00,43.5,39.3,29.28,ENE,67,0.0,0.0,85,0.00,,,0.00,WeatherCatV1.23B14,2013-11-06 17:44:00,
2013-11-06 17:54:00,43.5,39.3,29.29,ENE,67,0.7,1.1,85,0.00,,,0.00,WeatherCatV1.23B14,2013-11-06 17:54:00,
2013-11-06 18:04:00,43.5,39.3,29.29,ENE,67,0.0,0.0,85,0.00,,,0.00,WeatherCatV1.23B14,2013-11-06 18:04:00,
2013-11-06 18:14:00,43.2,39.2,29.29,North,0,0.0,2.2,86,0.00,,,0.00,WeatherCatV1.23B14,2013-11-06 18:14:00,
2013-11-06 18:24:00,42.6,39.0,29.30,SSE,157,0.0,1.8,87,0.02,,,0.02,WeatherCatV1.23B14,2013-11-06 18:24:00,
2013-11-06 18:34:00,42.4,39.1,29.29,SSE,157,0.0,0.0,88,0.02,,,0.02,WeatherCatV1.23B14,2013-11-06 18:34:00,
2013-11-06 18:44:00,42.1,38.8,29.29,SSE,157,0.0,0.9,88,0.02,,,0.02,WeatherCatV1.23B14,2013-11-06 18:44:00,
2013-11-06 18:54:00,42.1,39.1,29.29,SSE,157,0.0,0.0,89,0.02,,,0.02,WeatherCatV1.23B14,2013-11-06 18:54:00,
2013-11-06 19:04:00,41.9,38.9,29.30,SSE,157,0.0,0.0,89,0.02,,,0.02,WeatherCatV1.23B14,2013-11-06 19:04:00,
2013-11-06 19:14:00,41.7,38.7,29.30,SSE,157,0.0,0.0,89,0.02,,,0.02,WeatherCatV1.23B14,2013-11-06 19:14:00,
2013-11-06 19:24:00,41.7,38.8,29.30,SSE,157,0.0,0.0,90,0.00,,,0.02,WeatherCatV1.23B14,2013-11-06 19:24:00,
2013-11-06 19:34:00,41.2,38.5,29.30,SSE,157,0.0,0.0,90,0.00,,,0.02,WeatherCatV1.23B14,2013-11-06 19:34:00,
2013-11-06 19:44:00,40.8,38.1,29.31,SSE,157,0.0,0.0,90,0.00,,,0.02,WeatherCatV1.23B14,2013-11-06 19:44:00,
2013-11-06 19:54:00,40.8,38.1,29.30,NNE,22,0.0,0.0,90,0.02,,,0.04,WeatherCatV1.23B14,2013-11-06 19:54:00,
2013-11-06 20:04:00,41.0,38.6,29.30,NE,45,0.0,1.3,91,0.02,,,0.04,WeatherCatV1.23B14,2013-11-06 20:04:00,
2013-11-06 20:14:00,41.0,38.6,29.30,North,0,0.0,1.6,91,0.02,,,0.04,WeatherCatV1.23B14,2013-11-06 20:14:00,
2013-11-06 20:24:00,40.8,38.4,29.31,North,0,0.0,0.0,91,0.02,,,0.04,WeatherCatV1.23B14,2013-11-06 20:24:00,
2013-11-06 20:34:00,40.6,38.2,29.31,WNW,292,0.0,1.6,91,0.02,,,0.04,WeatherCatV1.23B14,2013-11-06 20:34:00,
2013-11-06 20:44:00,40.6,38.5,29.31,North,0,0.0,0.0,92,0.02,,,0.04,WeatherCatV1.23B14,2013-11-06 20:44:00,
2013-11-06 20:54:00,40.8,38.7,29.31,WSW,247,1.8,1.8,92,0.00,,,0.04,WeatherCatV1.23B14,2013-11-06 20:54:00,
2013-11-06 21:04:00,40.8,38.7,29.31,ENE,67,0.0,0.0,92,0.00,,,0.04,WeatherCatV1.23B14,2013-11-06 21:04:00,
2013-11-06 21:14:00,40.8,38.7,29.31,ENE,67,0.0,0.9,92,0.02,,,0.04,WeatherCatV1.23B14,2013-11-06 21:14:00,
2013-11-06 21:24:00,40.6,38.5,29.32,ESE,112,0.0,1.6,92,0.02,,,0.06,WeatherCatV1.23B14,2013-11-06 21:24:00,
2013-11-06 21:34:00,40.6,38.5,29.32,East,90,0.0,0.0,92,0.02,,,0.06,WeatherCatV1.23B14,2013-11-06 21:34:00,
2013-11-06 21:44:00,40.8,38.7,29.33,North,0,2.9,3.1,92,0.02,,,0.06,WeatherCatV1.23B14,2013-11-06 21:44:00,
2013-11-06 21:54:00,40.6,38.5,29.33,NE,45,3.1,3.1,92,0.02,,,0.06,WeatherCatV1.23B14,2013-11-06 21:54:00,
2013-11-06 22:04:00,39.9,37.8,29.33,NNW,337,0.0,1.6,92,0.04,,,0.08,WeatherCatV1.23B14,2013-11-06 22:04:00,
2013-11-06 22:14:00,39.7,37.6,29.34,NNE,22,0.0,0.0,92,0.02,,,0.08,WeatherCatV1.23B14,2013-11-06 22:14:00,
2013-11-06 22:24:00,39.6,37.4,29.34,WNW,292,0.0,0.0,92,0.04,,,0.10,WeatherCatV1.23B14,2013-11-06 22:24:00,
2013-11-06 22:34:00,39.4,37.2,29.34,WNW,292,0.0,0.0,92,0.04,,,0.10,WeatherCatV1.23B14,2013-11-06 22:34:00,
2013-11-06 22:44:00,39.4,37.5,29.34,WNW,292,0.0,0.0,93,0.04,,,0.10,WeatherCatV1.23B14,2013-11-06 22:44:00,
2013-11-06 23:04:00,39.4,37.5,29.34,WNW,292,0.0,0.0,93,0.02,,,0.10,WeatherCatV1.23B14,2013-11-06 23:04:00,
2013-11-06 23:14:00,39.6,37.7,29.35,WNW,292,0.0,0.7,93,0.02,,,0.10,WeatherCatV1.23B14,2013-11-06 23:14:00,
2013-11-06 23:24:00,39.7,37.8,29.36,NW,315,0.0,0.0,93,0.00,,,0.10,WeatherCatV1.23B14,2013-11-06 23:24:00,
2013-11-06 23:34:00,40.1,38.2,29.36,SSW,202,0.0,0.0,93,0.00,,,0.10,WeatherCatV1.23B14,2013-11-06 23:34:00,
2013-11-06 23:44:00,40.3,38.4,29.37,South,180,0.0,4.2,93,0.00,,,0.10,WeatherCatV1.23B14,2013-11-06 23:44:00,
2013-11-06 23:54:00,39.7,37.8,29.37,North,0,0.0,2.9,93,0.00,,,0.10,WeatherCatV1.23B14,2013-11-06 23:54:00,